This is the latest recevied weather packets stored in our database for station/object XW7RMR. If no packets are shown the sender has not sent any weather packets the latest 10 day(s).
| Time | Temp. | Humidity | Pressure | Rain* | Wind** | Luminosity | Snow |
|---|---|---|---|---|---|---|---|
| 1777549828 | 7.78° C | 97% | 1017.8 hPa | 0 mm | - | 0 W/m² | - |
| 1777549524 | 8.33° C | 97% | 1017.8 hPa | 0 mm | - | 0 W/m² | - |
| 1777549221 | 8.33° C | 97% | 1017.7 hPa | 0 mm | - | 0 W/m² | - |
| 1777548917 | 8.33° C | 96% | 1017.9 hPa | 0 mm | - | 0 W/m² | - |
| 1777548614 | 8.33° C | 96% | 1017.5 hPa | 0 mm | - | 0 W/m² | - |
| 1777548311 | 8.33° C | 96% | 1017.7 hPa | 0 mm | - | 0 W/m² | - |
| 1777548009 | 8.33° C | 96% | 1017.8 hPa | 0 mm | - | 0 W/m² | - |
| 1777547703 | 8.33° C | 96% | 1017.9 hPa | 0 mm | - | 0 W/m² | - |
| 1777547400 | 8.33° C | 96% | 1017.9 hPa | 0 mm | - | 0 W/m² | - |
| 1777547098 | 8.33° C | 96% | 1018 hPa | 0 mm | - | 0 W/m² | - |
| 1777546795 | 8.33° C | 96% | 1017.9 hPa | 0 mm | - | 0 W/m² | - |
| 1777546492 | 8.33° C | 96% | 1017.8 hPa | 0 mm | - | 0 W/m² | - |
| 1777546189 | 8.33° C | 96% | 1017.9 hPa | 0 mm | - | 0 W/m² | - |
| 1777545885 | 8.33° C | 96% | 1017.9 hPa | 0 mm | - | 0 W/m² | - |
| 1777545582 | 8.89° C | 95% | 1017.9 hPa | 0 mm | - | 0 W/m² | - |
| 1777545278 | 8.89° C | 94% | 1017.9 hPa | 0 mm | - | 0 W/m² | - |
| 1777544976 | 8.89° C | 94% | 1017.8 hPa | 0 mm | - | 0 W/m² | - |
| 1777544672 | 8.89° C | 94% | 1017.8 hPa | 0 mm | - | 0 W/m² | - |
| 1777544368 | 9.44° C | 94% | 1017.8 hPa | 0 mm | - | 0 W/m² | - |
| 1777544065 | 9.44° C | 94% | 1017.8 hPa | 0 mm | - | 0 W/m² | - |
| 1777543763 | 9.44° C | 93% | 1017.8 hPa | 0 mm | - | 0 W/m² | - |
| 1777543458 | 9.44° C | 91% | 1017.8 hPa | 0 mm | - | 0 W/m² | - |
| 1777543154 | 10° C | 87% | 1017.7 hPa | 0 mm | - | 0 W/m² | - |
| 1777542851 | 11.11° C | 82% | 1017.6 hPa | 0 mm | - | 0 W/m² | - |
| 1777542548 | 10.56° C | 83% | 1017.6 hPa | 0 mm | - | 0 W/m² | - |
* Rain latest hour (hover to see other rain measurements)
** Current wind speed in m/s (hover to see current wind gust speed)